GW1285 Weather Reports


time (UTC)temp
C
wind
direction
speed
KPH
gust
KPH
rain 1hr
cm
rain 24hr
cm
rain mn
cm
humidity
%
barometer
mb
20260906225739 23 161 3.2 4.8 0.00 0.00 0.00 27 1017.5
20260906225236 23 171 1.6 3.2 0.00 0.00 0.00 25 1017.6
20260906224731 24 177 4.8 8.0 0.00 0.00 0.00 24 1017.5
20260906224227 24 214 6.4 8.0 0.00 0.00 0.00 22 1017.7
20260906223723 24 220 9.7 11.3 0.00 0.00 0.00 23 1017.4
20260906223219 25 184 4.8 8.0 0.00 0.00 0.00 23 1017.7
20260906222717 24 198 4.8 4.8 0.00 0.00 0.00 25 1017.5
20260906222216 25 177 3.2 4.8 0.00 0.00 0.00 23 1017.5
20260906221714 25 199 3.2 4.8 0.00 0.00 0.00 23 1017.6
20260906221209 25 174 8.0 8.0 0.00 0.00 0.00 22 1017.6
20260906220704 25 157 1.6 8.0 0.00 0.00 0.00 23 1017.6
20260906220159 25 171 3.2 4.8 0.00 0.00 0.00 23 1017.6
20260906215658 25 189 1.6 3.2 0.00 0.00 0.00 24 1017.7
20260906215157 25 157 3.2 3.2 0.00 0.00 0.00 25 1017.7
20260906214655 24 145 8.0 9.7 0.00 0.00 0.00 23 1017.5
20260906214150 24 136 4.8 9.7 0.00 0.00 0.00 25 1017.7
20260906213650 25 161 1.6 11.3 0.00 0.00 0.00 23 1017.6
20260906213144 25 187 4.8 9.7 0.00 0.00 0.00 22 1017.8
20260906212642 25 171 1.6 4.8 0.00 0.00 0.00 24 1017.8
20260906212137 25 190 4.8 9.7 0.00 0.00 0.00 22 1018.1
20260906211637 24 222 6.4 11.3 0.00 0.00 0.00 21 1018.0
20260906211132 25 216 6.4 8.0 0.00 0.00 0.00 23 1018.3
20260906210628 24 189 1.6 4.8 0.00 0.00 0.00 24 1018.3
20260906210122 25 179 4.8 14.5 0.00 0.00 0.00 24 1018.4
20260906205618 25 176 4.8 4.8 0.00 0.00 0.00 24 1018.0
20260906205114 25 171 3.2 8.0 0.00 0.00 0.00 24 1018.2
20260906204613 24 190 4.8 14.5 0.00 0.00 0.00 23 1018.4
20260906204108 25 212 8.0 14.5 0.00 0.00 0.00 22 1018.4
20260906203608 25 116 8.0 12.9 0.00 0.00 0.00 23 1018.3
20260906203103 25 180 6.4 16.1 0.00 0.00 0.00 24 1018.6
20260906202600 25 192 4.8 9.7 0.00 0.00 0.00 25 1018.4
20260906202100 25 156 8.0 16.1 0.00 0.00 0.00 23 1018.6
20260906201600 25 169 1.6 8.0 0.00 0.00 0.00 25 1018.4
20260906201059 25 214 8.0 11.3 0.00 0.00 0.00 21 1018.4
20260906200555 25 188 8.0 11.3 0.00 0.00 0.00 21 1018.2
20260906200051 25 181 3.2 9.7 0.00 0.00 0.00 22 1018.2
20260906195546 25 163 1.6 3.2 0.00 0.00 0.00 23 1018.6
20260906195043 25 208 3.2 8.0 0.00 0.00 0.00 23 1018.6
20260906194538 25 212 8.0 11.3 0.00 0.00 0.00 22 1018.6
20260906194034 25 192 1.6 9.7 0.00 0.00 0.00 22 1018.6
20260906193533 25 158 1.6 11.3 0.00 0.00 0.00 21 1018.6
20260906193029 25 156 4.8 8.0 0.00 0.00 0.00 21 1018.7
20260906192524 25 176 3.2 4.8 0.00 0.00 0.00 23 1018.8
20260906192023 25 175 4.8 9.7 0.00 0.00 0.00 23 1018.9
20260906191519 25 180 3.2 8.0 0.00 0.00 0.00 22 1018.9
20260906191018 25 168 1.6 4.8 0.00 0.00 0.00 25 1019.3
20260906190517 25 206 3.2 4.8 0.00 0.00 0.00 25 1019.2
20260906190012 25 175 3.2 11.3 0.00 0.00 0.00 22 1019.3
20260906185511 25 180 6.4 9.7 0.00 0.00 0.00 22 1019.5
20260906185010 25 182 4.8 12.9 0.00 0.00 0.00 20 1019.9
20260906184506 25 165 4.8 11.3 0.00 0.00 0.00 22 1019.8
20260906184001 25 133 8.0 11.3 0.00 0.00 0.00 20 1019.8
20260906183457 25 185 6.4 9.7 0.00 0.00 0.00 19 1020.0
20260906182952 25 187 8.0 12.9 0.00 0.00 0.00 21 1019.8
20260906182447 25 159 8.0 11.3 0.00 0.00 0.00 22 1019.9
20260906181943 24 170 4.8 9.7 0.00 0.00 0.00 25 1020.1
20260906181439 24 191 4.8 11.3 0.00 0.00 0.00 22 1020.1
20260906180934 24 158 6.4 4.8 0.00 0.00 0.00 25 1020.1
20260906180429 25 238 4.8 4.8 0.00 0.00 0.00 22 1020.1
20260906175927 25 212 3.2 8.0 0.00 0.00 0.00 23 1019.9
20260906175422 24 168 3.2 3.2 0.00 0.00 0.00 24 1020.5
20260906174920 24 200 4.8 12.9 0.00 0.00 0.00 23 1020.5
20260906174420 24 149 6.4 9.7 0.00 0.00 0.00 23 1020.4
20260906173915 24 217 4.8 9.7 0.00 0.00 0.00 25 1020.5
20260906173410 23 174 6.4 9.7 0.00 0.00 0.00 23 1020.5
20260906172909 23 129 3.2 4.8 0.00 0.00 0.00 30 1021.0
20260906172406 23 53 3.2 3.2 0.00 0.00 0.00 28 1020.7
20260906171901 23 214 0.0 3.2 0.00 0.00 0.00 29 1021.0
20260906171355 23 175 1.6 3.2 0.00 0.00 0.00 33 1020.9
20260906170851 22 103 1.6 1.6 0.00 0.00 0.00 32 1020.9
20260906170348 21 103 0.0 1.6 0.00 0.00 0.00 34 1021.2
20260906165844 20 196 0.0 1.6 0.00 0.00 0.00 34 1021.6
20260906165342 20 101 0.0 3.2 0.00 0.00 0.00 35 1021.3
20260906164838 20 177 1.6 3.2 0.00 0.00 0.00 35 1021.6
20260906164337 20 23 3.2 3.2 0.00 0.00 0.00 35 1021.6
20260906163833 18 64 1.6 3.2 0.00 0.00 0.00 37 1021.3
20260906163329 18 53 0.0 3.2 0.00 0.00 0.00 38 1021.3
20260906162826 18 284 1.6 3.2 0.00 0.00 0.00 40 1021.5
20260906162325 18 80 0.0 3.2 0.00 0.00 0.00 45 1021.5
20260906161821 17 80 1.6 3.2 0.00 0.00 0.00 42 1021.5
20260906161320 17 294 1.6 3.2 0.00 0.00 0.00 39 1021.3
20260906160819 17 69 3.2 3.2 0.00 0.00 0.00 38 1021.8
20260906160313 16 219 1.6 3.2 0.00 0.00 0.00 40 1021.7
20260906155811 16 220 1.6 3.2 0.00 0.00 0.00 39 1021.6
20260906155307 16 220 1.6 3.2 0.00 0.00 0.00 37 1021.6
20260906154802 15 220 0.0 1.6 0.00 0.00 0.00 40 1021.6
20260906154256 15 219 0.0 3.2 0.00 0.00 0.00 40 1021.8
20260906153754 15 219 0.0 1.6 0.00 0.00 0.00 40 1021.8
20260906153243 14 219 3.2 3.2 0.00 0.00 0.00 41 1021.6
20260906152738 13 198 0.0 1.6 0.00 0.00 0.00 41 1021.8
20260906152233 13 198 0.0 0.0 0.00 0.00 0.00 44 1021.9
20260906151732 12 144 0.0 0.0 0.00 0.00 0.00 46 1021.9
20260906151228 12 150 0.0 0.0 0.00 0.00 0.00 49 1021.9
20260906150723 11 150 1.6 1.6 0.00 0.00 0.00 48 1022.2
20260906150219 11 150 0.0 1.6 0.00 0.00 0.00 50 1022.2
20260906145718 10 150 0.0 3.2 0.00 0.00 0.00 52 1022.1
20260906145217 10 150 0.0 1.6 0.00 0.00 0.00 56 1021.9
20260906144712 10 150 1.6 1.6 0.00 0.00 0.00 53 1022.2
20260906144207 9 150 0.0 0.0 0.00 0.00 0.00 54 1021.9
20260906143706 8 150 0.0 0.0 0.00 0.00 0.00 56 1022.1
20260906143204 8 150 0.0 0.0 0.00 0.00 0.00 58 1022.3
20260906142703 8 149 1.6 1.6 0.00 0.00 0.00 58 1022.3
20260906142159 7 149 0.0 0.0 0.00 0.00 0.00 63 1021.9
20260906141657 7 149 0.0 0.0 0.00 0.00 0.00 68 1022.1
20260906141152 6 149 0.0 0.0 0.00 0.00 0.00 71 1021.9
20260906140652 5 150 0.0 0.0 0.00 0.00 0.00 72 1022.2
20260906140147 5 150 0.0 0.0 0.00 0.00 0.00 73 1021.8
20260906135644 5 150 0.0 0.0 0.00 0.00 0.00 72 1022.2
20260906135140 5 150 0.0 0.0 0.00 0.00 0.00 72 1022.1
20260906134635 5 150 0.0 1.6 0.00 0.00 0.00 73 1021.9
20260906134130 5 150 0.0 0.0 0.00 0.00 0.00 72 1021.9
20260906133626 5 150 0.0 0.0 0.00 0.00 0.00 71 1022.1
20260906133120 5 150 0.0 0.0 0.00 0.00 0.00 73 1021.8
20260906132615 5 150 1.6 1.6 0.00 0.00 0.00 73 1021.8
20260906132111 5 150 0.0 0.0 0.00 0.00 0.00 73 1021.9
20260906131607 5 150 0.0 0.0 0.00 0.00 0.00 73 1021.9
20260906131102 5 150 0.0 0.0 0.00 0.00 0.00 72 1021.7
20260906130556 5 150 0.0 0.0 0.00 0.00 0.00 72 1021.8
20260906130051 5 150 0.0 0.0 0.00 0.00 0.00 72 1021.7
20260906125548 5 150 0.0 0.0 0.00 0.00 0.00 71 1021.6
20260906125043 5 150 0.0 1.6 0.00 0.00 0.00 71 1021.5
20260906124538 6 150 0.0 0.0 0.00 0.00 0.00 70 1021.7
20260906124033 6 150 0.0 0.0 0.00 0.00 0.00 70 1021.3
20260906123532 5 150 0.0 0.0 0.00 0.00 0.00 68 1021.5
20260906123027 6 150 0.0 0.0 0.00 0.00 0.00 70 1021.2
20260906122521 6 150 0.0 0.0 0.00 0.00 0.00 69 1021.3
20260906122018 6 150 0.0 0.0 0.00 0.00 0.00 69 1021.2
20260906121514 6 150 0.0 0.0 0.00 0.00 0.00 70 1021.1
20260906121009 6 150 0.0 0.0 0.00 0.00 0.00 70 1021.3
20260906120504 6 150 0.0 0.0 0.00 0.00 0.00 71 1021.3
20260906120002 6 150 0.0 0.0 0.00 0.00 0.00 68 1021.1
20260906115456 6 150 0.0 0.0 0.00 0.00 0.00 69 1021.2
20260906114956 6 150 0.0 0.0 0.00 0.00 0.00 70 1021.2
20260906114450 6 150 0.0 1.6 0.00 0.00 0.00 71 1021.1
20260906113947 6 150 0.0 0.0 0.00 0.00 0.00 70 1021.5
20260906113445 6 150 1.6 1.6 0.00 0.00 0.00 69 1021.3
20260906112941 6 150 3.2 3.2 0.00 0.00 0.00 69 1021.5
20260906112436 6 150 1.6 1.6 0.00 0.00 0.00 69 1021.5
20260906111932 6 150 0.0 0.0 0.00 0.00 0.00 69 1021.2
20260906111431 6 150 0.0 0.0 0.00 0.00 0.00 69 1021.2
20260906110926 6 150 0.0 0.0 0.00 0.00 0.00 68 1021.2
20260906110422 6 150 0.0 0.0 0.00 0.00 0.00 68 1021.5
20260906105920 6 150 0.0 0.0 0.00 0.00 0.00 68 1021.0
20260906105416 6 150 0.0 0.0 0.00 0.00 0.00 67 1021.1
20260906104912 7 150 0.0 0.0 0.00 0.00 0.00 67 1021.2
20260906104410 7 150 0.0 0.0 0.00 0.00 0.00 65 1021.2
20260906103910 7 150 0.0 0.0 0.00 0.00 0.00 64 1021.3
20260906103408 7 150 0.0 1.6 0.00 0.00 0.00 62 1021.1
20260906102904 8 150 0.0 0.0 0.00 0.00 0.00 60 1021.1
20260906102403 9 150 0.0 0.0 0.00 0.00 0.00 57 1021.3
20260906101858 9 150 0.0 1.6 0.00 0.00 0.00 56 1021.0
20260906101353 10 150 0.0 0.0 0.00 0.00 0.00 55 1021.1
20260906100849 10 150 0.0 1.6 0.00 0.00 0.00 53 1021.0
20260906100348 10 150 1.6 3.2 0.00 0.00 0.00 53 1020.9
20260906095843 10 150 1.6 1.6 0.00 0.00 0.00 56 1021.0
20260906095338 9 150 1.6 1.6 0.00 0.00 0.00 56 1021.2
20260906094832 9 150 1.6 1.6 0.00 0.00 0.00 56 1021.2
20260906094327 9 150 1.6 1.6 0.00 0.00 0.00 60 1021.0
20260906093824 9 150 0.0 0.0 0.00 0.00 0.00 58 1020.6
20260906093319 10 150 1.6 1.6 0.00 0.00 0.00 56 1020.7
20260906092814 10 150 0.0 1.6 0.00 0.00 0.00 55 1020.7
20260906092308 10 150 0.0 0.0 0.00 0.00 0.00 55 1020.7
20260906091804 9 150 1.6 1.6 0.00 0.00 0.00 56 1020.7
20260906091300 10 150 1.6 1.6 0.00 0.00 0.00 57 1020.9
20260906090756 10 150 0.0 1.6 0.00 0.00 0.00 58 1021.0
20260906090255 10 150 0.0 0.0 0.00 0.00 0.00 56 1021.0
20260906085754 10 150 0.0 1.6 0.00 0.00 0.00 54 1020.7
20260906085253 10 150 1.6 1.6 0.00 0.00 0.00 53 1020.9
20260906084743 10 150 1.6 1.6 0.00 0.00 0.00 56 1021.0
20260906084242 10 150 0.0 1.6 0.00 0.00 0.00 54 1020.9
20260906083737 10 150 0.0 0.0 0.00 0.00 0.00 52 1021.0
20260906083233 10 150 0.0 1.6 0.00 0.00 0.00 51 1021.0
20260906082728 10 149 1.6 1.6 0.00 0.00 0.00 53 1020.9
20260906082223 10 150 1.6 1.6 0.00 0.00 0.00 54 1021.0
20260906081719 10 150 1.6 1.6 0.00 0.00 0.00 55 1021.1
20260906081213 10 149 1.6 1.6 0.00 0.00 0.00 58 1020.7
20260906080710 10 150 0.0 1.6 0.00 0.00 0.00 57 1020.9
20260906080206 10 149 0.0 1.6 0.00 0.00 0.00 57 1020.7
20260906075700 10 149 0.0 0.0 0.00 0.00 0.00 56 1020.9
20260906075154 10 149 0.0 0.0 0.00 0.00 0.00 52 1020.9
20260906074649 10 149 0.0 0.0 0.00 0.00 0.00 54 1021.2
20260906074143 10 149 0.0 0.0 0.00 0.00 0.00 54 1021.0
20260906073638 10 149 0.0 0.0 0.00 0.00 0.00 55 1021.1
20260906073134 10 149 0.0 1.6 0.00 0.00 0.00 56 1021.1
20260906072629 10 149 0.0 0.0 0.00 0.00 0.00 57 1020.7
20260906072124 10 149 1.6 1.6 0.00 0.00 0.00 54 1020.9
20260906071620 10 149 0.0 0.0 0.00 0.00 0.00 55 1020.9
20260906071115 10 149 0.0 0.0 0.00 0.00 0.00 52 1020.9
20260906070612 10 149 0.0 0.0 0.00 0.00 0.00 53 1020.9
20260906070107 10 149 0.0 1.6 0.00 0.00 0.00 52 1020.9
20260906065607 11 150 0.0 0.0 0.00 0.00 0.00 50 1020.6
20260906065102 11 149 0.0 1.6 0.00 0.00 0.00 48 1021.0
20260906064558 11 149 0.0 1.6 0.00 0.00 0.00 49 1020.9
20260906064052 11 149 0.0 1.6 0.00 0.00 0.00 50 1021.0
20260906063548 11 150 1.6 1.6 0.00 0.00 0.00 50 1020.9
20260906063044 11 150 0.0 1.6 0.00 0.00 0.00 52 1021.1
20260906062538 10 112 1.6 1.6 0.00 0.00 0.00 53 1021.0
20260906062033 10 112 0.0 1.6 0.00 0.00 0.00 55 1020.9
20260906061529 10 112 0.0 0.0 0.00 0.00 0.00 55 1020.9
20260906061028 11 112 0.0 0.0 0.00 0.00 0.00 54 1021.0
20260906060525 10 112 0.0 0.0 0.00 0.00 0.00 54 1021.0
20260906060022 10 112 0.0 0.0 0.00 0.00 0.00 54 1021.1
20260906055517 11 112 0.0 0.0 0.00 0.00 0.00 50 1021.0
20260906055012 11 112 0.0 0.0 0.00 0.00 0.00 52 1020.7
20260906054507 11 112 0.0 0.0 0.00 0.00 0.00 50 1021.0
20260906054003 12 112 0.0 0.0 0.00 0.00 0.00 50 1021.0
20260906053459 12 112 0.0 1.6 0.00 0.00 0.00 49 1021.0
20260906052954 12 112 0.0 0.0 0.00 0.00 0.00 47 1021.1
20260906052450 13 113 0.0 0.0 0.00 0.00 0.00 42 1021.2
20260906051947 13 113 0.0 0.0 0.00 0.00 0.00 41 1021.2
20260906051442 13 113 0.0 0.0 0.00 0.00 0.00 42 1021.0
20260906050937 13 113 1.6 1.6 0.00 0.00 0.00 42 1021.1
20260906050437 13 113 0.0 0.0 0.00 0.00 0.00 41 1021.1
20260906045936 13 113 0.0 0.0 0.00 0.00 0.00 41 1021.1
20260906045435 13 113 0.0 0.0 0.00 0.00 0.00 41 1021.3
20260906044931 15 112 0.0 1.6 0.00 0.00 0.00 39 1021.1
20260906044426 15 112 1.6 1.6 0.00 0.00 0.00 36 1021.3
20260906043921 15 115 1.6 3.2 0.00 0.00 0.00 36 1021.2
20260906043417 15 109 1.6 1.6 0.00 0.00 0.00 36 1021.1
20260906042913 15 83 1.6 3.2 0.00 0.00 0.00 35 1021.2
20260906042411 15 153 1.6 3.2 0.00 0.00 0.00 35 1021.0
20260906041907 15 148 1.6 4.8 0.00 0.00 0.00 35 1021.3
20260906041402 15 124 0.0 3.2 0.00 0.00 0.00 35 1021.2
20260906040857 15 122 1.6 1.6 0.00 0.00 0.00 35 1021.3
20260906040352 15 115 1.6 8.0 0.00 0.00 0.00 35 1021.1
20260906035848 16 214 3.2 3.2 0.00 0.00 0.00 35 1021.0
20260906035343 16 148 3.2 4.8 0.00 0.00 0.00 35 1021.1
20260906034838 16 147 1.6 4.8 0.00 0.00 0.00 34 1021.1
20260906034333 16 159 3.2 4.8 0.00 0.00 0.00 35 1021.1
20260906033829 16 174 1.6 1.6 0.00 0.00 0.00 34 1020.9
20260906033328 16 174 3.2 4.8 0.00 0.00 0.00 33 1021.0
20260906032825 17 166 3.2 4.8 0.00 0.00 0.00 32 1021.0
20260906032320 17 150 1.6 4.8 0.00 0.00 0.00 34 1021.0
20260906031815 16 158 1.6 4.8 0.00 0.00 0.00 33 1021.0
20260906031311 17 137 0.0 3.2 0.00 0.00 0.00 32 1020.9
20260906030810 17 77 0.0 3.2 0.00 0.00 0.00 31 1020.7
20260906030306 17 136 1.6 4.8 0.00 0.00 0.00 32 1021.0
20260906025805 17 119 4.8 4.8 0.00 0.00 0.00 32 1020.9
20260906025259 17 120 3.2 8.0 0.00 0.00 0.00 31 1020.5
20260906024758 17 142 4.8 4.8 0.00 0.00 0.00 32 1020.6
20260906024257 17 151 3.2 3.2 0.00 0.00 0.00 31 1020.3
20260906023753 17 151 1.6 3.2 0.00 0.00 0.00 31 1020.4
20260906023248 17 151 1.6 3.2 0.00 0.00 0.00 31 1020.4
20260906022744 17 150 0.0 1.6 0.00 0.00 0.00 31 1020.3
20260906022239 17 149 1.6 3.2 0.00 0.00 0.00 31 1020.0
20260906021735 17 149 1.6 3.2 0.00 0.00 0.00 32 1020.1
20260906021234 18 149 0.0 1.6 0.00 0.00 0.00 33 1020.0
20260906020729 18 149 1.6 1.6 0.00 0.00 0.00 32 1020.0
20260906020223 19 149 1.6 1.6 0.00 0.00 0.00 31 1020.0
20260906015718 20 149 0.0 0.0 0.00 0.00 0.00 30 1019.9
20260906015216 20 149 0.0 1.6 0.00 0.00 0.00 28 1020.1
20260906014711 20 149 1.6 1.6 0.00 0.00 0.00 29 1020.0
20260906014207 20 150 1.6 1.6 0.00 0.00 0.00 27 1020.0
20260906013703 21 149 0.0 1.6 0.00 0.00 0.00 29 1019.4
20260906013203 21 149 0.0 1.6 0.00 0.00 0.00 26 1019.7
20260906012658 22 149 0.0 1.6 0.00 0.00 0.00 26 1019.5
20260906012158 22 149 1.6 1.6 0.00 0.00 0.00 25 1019.4
20260906011654 23 150 0.0 1.6 0.00 0.00 0.00 23 1019.5
20260906011148 23 150 1.6 1.6 0.00 0.00 0.00 22 1019.7
20260906010643 23 150 1.6 4.8 0.00 0.00 0.00 20 1019.5
20260906010140 24 117 1.6 8.0 0.00 0.00 0.00 21 1019.7
20260906005639 24 157 3.2 3.2 0.00 0.00 0.00 19 1019.7
20260906005138 25 163 0.0 1.6 0.00 0.00 0.00 19 1019.4
20260906004638 25 163 1.6 3.2 0.00 0.00 0.00 17 1019.4
20260906004133 25 170 3.2 8.0 0.00 0.00 0.00 16 1019.4
20260906003628 25 151 1.6 4.8 0.00 0.00 0.00 17 1019.3
20260906003124 25 159 4.8 9.7 0.00 0.00 0.00 17 1019.3
20260906002618 26 169 3.2 9.7 0.00 0.00 0.00 17 1019.5
20260906002113 26 198 4.8 11.3 0.00 0.00 0.00 16 1019.4
20260906001603 26 217 4.8 9.7 0.00 0.00 0.00 16 1019.3
20260906001103 26 179 6.4 9.7 0.00 0.00 0.00 16 1019.4
20260906000559 26 174 6.4 9.7 0.00 0.00 0.00 16 1019.7
20260906000054 26 213 4.8 4.8 0.00 0.00 0.00 16 1019.7
20260905235553 26 208 4.8 9.7 0.00 0.00 0.00 16 1019.4
20260905235048 26 193 4.8 4.8 0.00 0.00 0.00 17 1019.7
20260905234543 26 199 6.4 9.7 0.00 0.00 0.00 17 1019.4
20260905234038 26 172 3.2 9.7 0.00 0.00 0.00 18 1019.4
20260905233533 26 203 3.2 8.0 0.00 0.00 0.00 15 1019.5
20260905233033 26 162 6.4 9.7 0.00 0.00 0.00 17 1019.4
20260905232528 27 181 3.2 9.7 0.00 0.00 0.00 16 1019.5
20260905232024 27 174 4.8 9.7 0.00 0.00 0.00 16 1019.4
20260905231519 26 217 1.6 8.0 0.00 0.00 0.00 16 1019.4
20260905231015 26 185 6.4 9.7 0.00 0.00 0.00 18 1019.5
20260905230514 26 185 4.8 8.0 0.00 0.00 0.00 17 1019.5
20260905230013 26 202 3.2 4.8 0.00 0.00 0.00 15 1019.4